This is the latest recevied weather packets stored in our database for station/object NEWPRT. If no packets are shown the sender has not sent any weather packets the latest 10 day(s).
| Time | Temp. | Humidity | Pressure | Rain* | Wind** | Luminosity | Snow |
|---|---|---|---|---|---|---|---|
| 1777749685 | - | 63% | 1016.4 hPa | 0 mm | - | - | - |
| 1777749361 | - | 62% | 1016.5 hPa | 0 mm | - | - | - |
| 1777749038 | - | 60% | 1016.3 hPa | 0 mm | - | - | - |
| 1777748716 | - | 60% | 1016.3 hPa | 0 mm | - | - | - |
| 1777748392 | - | 59% | 1016.5 hPa | 0 mm | - | - | - |
| 1777748069 | - | 57% | 1016.6 hPa | 0 mm | - | - | - |
| 1777747746 | - | 58% | 1016.4 hPa | 0 mm | - | - | - |
| 1777747423 | - | 58% | 1016.7 hPa | 0 mm | - | - | - |
| 1777747100 | - | 60% | 1016.7 hPa | 0 mm | - | - | - |
| 1777746777 | - | 60% | 1016.7 hPa | 0 mm | - | - | - |
| 1777746454 | - | 62% | 1016.7 hPa | 0 mm | - | - | - |
| 1777746131 | - | 63% | 1016.6 hPa | 0 mm | - | - | - |
| 1777745808 | - | 63% | 1016.7 hPa | 0 mm | - | - | - |
| 1777745485 | - | 62% | 1016.8 hPa | 0 mm | - | - | - |
| 1777745162 | - | 60% | 1016.7 hPa | 0 mm | - | - | - |
| 1777744839 | - | 61% | 1016.7 hPa | 0 mm | - | - | - |
| 1777744517 | - | 61% | 1016.7 hPa | 0 mm | - | - | - |
| 1777744193 | - | 65% | 1016.8 hPa | 0 mm | - | - | - |
| 1777743870 | - | 66% | 1016.8 hPa | 0 mm | - | - | - |
| 1777743547 | - | 65% | 1016.7 hPa | 0 mm | - | - | - |
| 1777743224 | - | 64% | 1016.7 hPa | 0 mm | - | - | - |
| 1777742901 | - | 64% | 1016.6 hPa | 0 mm | - | - | - |
| 1777742578 | - | 63% | 1016.4 hPa | 0 mm | - | - | - |
| 1777742255 | - | 64% | 1016.6 hPa | 0 mm | - | - | - |
| 1777741932 | - | 63% | 1016.5 hPa | 0 mm | - | - | - |
* Rain latest hour (hover to see other rain measurements)
** Current wind speed in m/s (hover to see current wind gust speed)